Laconia, NH

5:30 PM EST on November 18, 2019 (GMT -0500)
Laconia Municipal

Weather History for KLCI - September, 2019

Change the Weather History Date:

Saturday, September 7, 2019

  Actual Average Record
Temperature  
Mean Temperature 60 °F -  
Max Temperature 66 °F 73 °F 89 °F (2007)
Min Temperature 53 °F 53 °F 40 °F (1984)
Degree Days  
Heating Degree Days 6    
Growing Degree Days 10 (Base 50)    
Moisture  
Dew Point 51 °F    
Average Humidity 73    
Maximum Humidity 94    
Minimum Humidity 58    
Precipitation  
Precipitation 0.24 in - - ()
Sea Level Pressure  
Sea Level Pressure 29.77 in    
Wind  
Wind Speed 5 mph ()    
Max Wind Speed 12 mph    
Max Gust Speed -    
Visibility 9.3 miles    
Events Rain    
Averages and records for this station are not official NWS values.
T = Trace of Precipitation, MM = Missing Value Source: Averaged Metar Reports

Daily Weather History Graph

Daily Weather History Graph

Search for Another Location

Airport or City:

Astronomy

Sep. 07, 2019 Rise Set
Actual Time 6:15 AM EDT 7:10 PM EDT
Civil Twilight 5:46 AM EDT 7:39 PM EDT
Nautical Twilight 5:11 AM EDT 8:14 PM EDT
Astronomical Twilight 4:35 AM EDT 8:50 PM EDT
Moon 3:32 PM EDT (9/7) No Moon Set
Length of Visible Light 13h 53m
Length of Day
12h 54m
Waxing Gibbous, 65% of the Moon is Illuminated
Sep 7
Waxing Gibbous
Sep 14
Full
Sep 21
Last Quarter
Sep 28
New
Oct 5
First Quarter

Hourly Weather History & Observations

Time (EDT) Temp. Dew Point Humidity Pressure Visibility Wind Dir Wind Speed Gust Speed Precip Events Conditions
12:56 AM 57.0 °F 46.9 °F 69% 29.88 in 10.0 mi NE 8.1 mph - N/A   Overcast
1:56 AM 57.0 °F 46.9 °F 69% 29.88 in 10.0 mi East 5.8 mph - N/A   Overcast
2:56 AM 55.9 °F 48.0 °F 75% 29.87 in 10.0 mi ESE 5.8 mph - 0.00 in Rain Light Rain
3:56 AM 53.1 °F 48.9 °F 86% 29.82 in 7.0 mi ENE 6.9 mph - 0.10 in Rain Light Rain
4:56 AM 53.1 °F 48.9 °F 86% 29.80 in 9.0 mi ENE 9.2 mph - 0.08 in Rain Rain
5:56 AM 53.1 °F 48.9 °F 86% 29.78 in 10.0 mi ENE 9.2 mph - 0.05 in Rain Light Rain
6:56 AM 54.0 °F 48.9 °F 83% 29.77 in 10.0 mi Variable 3.5 mph - 0.01 in Rain Light Rain
7:47 AM 53.6 °F 51.8 °F 94% 29.77 in 10.0 mi Calm Calm - 0.00 in   Mostly Cloudy
7:56 AM 55.0 °F 52.0 °F 89% 29.78 in 10.0 mi Variable 4.6 mph - 0.00 in   Overcast
8:18 AM 55.4 °F 51.8 °F 88% 29.77 in 10.0 mi NW 3.5 mph - N/A   Overcast
8:56 AM 55.9 °F 50.0 °F 80% 29.78 in 10.0 mi North 4.6 mph - N/A   Overcast
9:10 AM 57.2 °F 48.2 °F 72% 29.77 in 10.0 mi NNW 5.8 mph - N/A   Overcast
9:36 AM 57.2 °F 51.8 °F 82% 29.77 in 10.0 mi NNW 3.5 mph - N/A   Overcast
9:56 AM 57.9 °F 51.1 °F 78% 29.77 in 10.0 mi NNW 4.6 mph - N/A   Overcast
10:56 AM 62.1 °F 52.0 °F 70% 29.76 in 10.0 mi North 6.9 mph - N/A   Mostly Cloudy
11:31 AM 62.6 °F 50.0 °F 63% 29.75 in 1.8 mi North 6.9 mph - N/A   Haze
11:38 AM 64.4 °F 50.0 °F 59% 29.75 in 3.0 mi NNW 6.9 mph - N/A   Haze
11:56 AM 64.0 °F 50.0 °F 60% 29.74 in 10.0 mi North 6.9 mph - N/A   Partly Cloudy
12:56 PM 64.0 °F 48.9 °F 58% 29.73 in 9.0 mi Variable 4.6 mph - N/A   Overcast
1:56 PM 64.9 °F 50.0 °F 58% 29.72 in 10.0 mi Variable 3.5 mph - N/A   Overcast
2:56 PM 64.0 °F 52.0 °F 65% 29.72 in 10.0 mi East 4.6 mph - N/A   Overcast
3:56 PM 66.0 °F 52.0 °F 60% 29.73 in 10.0 mi Calm Calm - N/A   Overcast
4:56 PM 64.9 °F 51.1 °F 61% 29.72 in 10.0 mi Calm Calm - N/A   Mostly Cloudy
5:56 PM 64.0 °F 55.0 °F 73% 29.72 in 10.0 mi SW 3.5 mph - N/A   Overcast
6:56 PM 64.0 °F 51.1 °F 63% 29.75 in 10.0 mi West 11.5 mph - N/A   Overcast
7:56 PM 62.1 °F 52.0 °F 70% 29.76 in 10.0 mi West 4.6 mph - 0.00 in   Overcast
8:56 PM 60.1 °F 52.0 °F 75% 29.77 in 10.0 mi West 4.6 mph - N/A   Scattered Clouds
9:56 PM 59.0 °F 52.0 °F 78% 29.78 in 10.0 mi Variable 3.5 mph - N/A   Mostly Cloudy
10:56 PM 60.1 °F 52.0 °F 75% 29.79 in 10.0 mi West 4.6 mph - N/A   Overcast
11:56 PM 59.0 °F 52.0 °F 78% 29.79 in 10.0 mi WSW 8.1 mph - N/A   Mostly Cloudy